Flag for Germany Weather past 2 weeks in Leinfelden-Echterdingen, Baden-Württemberg, Germany

Now
52 °F

Broken clouds.


Feels Like: 46 °F
Forecast: 35 / 58 °F
Wind: 18 mph from West

Location: Stuttgart-Echterdingen

Current Time: Apr 28, 2015 at 4:30:08 PM

Latest Report: Apr 28, 2015 at 3:50 PM


Visibility: N/A

Pressure: 30.04 "Hg

Humidity: 54%

Dew point: 36 °F

Location of Leinfelden-EchterdingenLocation

Historic Weather in Leinfelden-Echterdingen — Graph

°F

Leinfelden-Echterdingen temperature yesterday

Maximum temperature yesterday: 66 °F (at 4:50 PM)
Minimum temperature yesterday: 50 °F (at 11:50 PM)
Average temperature yesterday: 59 °F

Past Weeks' High & Low Weather Summary

 TemperatureHumidityPressure
High77 °F (Apr 15, 3:20 PM)100% (Apr 27, 9:50 PM)30.42 "Hg (Apr 27, 9:50 PM)
Low32 °F (Apr 23, 6:20 AM)15% (Apr 15, 5:50 PM)29.53 "Hg (Apr 27, 4:50 PM)
Average54 °F59%30.05 "Hg
* Reported Apr 13 3:20 PM — Apr 28 3:20 PM, Leinfelden-Echterdingen, Weather by CustomWeather, © 2015

Note: Actual official high and low records may vary slightly from our data, if they occured in-between our weather recording intervals... More about our weather records

Advertising

Leinfelden-Echterdingen weather history for previous 24 hours

 ConditionsComfort  
Time TempWeatherWind HumidityBarometerVisibility
3:20 PM
Tue, Apr 28
50 °FBroken clouds.10 mph62%30.04 "HgN/A
2:50 PM50 °FBroken clouds.13 mph62%30.04 "HgN/A
2:20 PM48 °FBroken clouds.9 mph66%30.04 "HgN/A
1:50 PM48 °FBroken clouds.14 mph71%30.01 "HgN/A
1:20 PM48 °FBroken clouds.15 mph66%30.01 "HgN/A
12:50 PM50 °FBroken clouds.12 mph62%30.01 "HgN/A
12:20 PM48 °FBroken clouds.12 mph71%30.01 "HgN/A
11:50 AM46 °FPartly sunny.13 mph76%29.98 "HgN/A
11:20 AM45 °FBroken clouds.14 mph81%29.98 "HgN/A
10:50 AM45 °FPartly sunny.14 mph87%29.95 "HgN/A
10:20 AM43 °FOvercast.16 mph93%29.95 "HgN/A
9:50 AM43 °FPartly sunny.17 mph93%29.92 "Hg4 mi
9:20 AM43 °FLight rain. Partly sunny.16 mph93%29.89 "Hg4 mi
8:50 AM43 °FLight rain. Partly sunny.16 mph93%29.89 "Hg4 mi
8:20 AM43 °FLight rain. Partly sunny.15 mph93%29.86 "Hg4 mi
7:50 AM43 °FLight rain. Partly sunny.17 mph93%29.83 "Hg4 mi
7:20 AM43 °FLight rain. Partly sunny.14 mph93%29.83 "Hg4 mi
6:50 AM43 °FDrizzle. Low clouds.15 mph100%29.80 "Hg3 mi
6:20 AM43 °FDrizzle. Low clouds.13 mph100%29.77 "Hg2 mi
5:20 AM45 °FPassing clouds.15 mph93%29.74 "Hg5 mi
4:50 AM45 °FPassing clouds.13 mph93%29.74 "Hg5 mi
4:20 AM45 °FDrizzle. Fog.10 mph93%29.71 "Hg3 mi
3:50 AM45 °FDrizzle. Low clouds.13 mph100%29.71 "Hg4 mi
3:20 AM45 °FDrizzle. Low clouds.14 mph100%29.68 "Hg4 mi
2:50 AM45 °FLow clouds.17 mph100%29.68 "Hg6 mi
2:20 AM45 °FFog.20 mph100%29.68 "Hg3 mi
1:50 AM46 °FFog.18 mph100%29.68 "Hg2 mi
1:20 AM46 °FFog.20 mph100%29.65 "Hg2 mi
12:50 AM48 °FLow clouds.17 mph94%29.65 "Hg5 mi
12:20 AM50 °FLight rain. Low clouds.16 mph94%29.65 "HgN/A
11:50 PM
Mon, Apr 27
50 °FLight rain. Passing clouds.15 mph100%29.62 "Hg4 mi
11:20 PM52 °FLight rain. Passing clouds.12 mph94%29.62 "HgN/A
10:50 PM52 °FLight rain. Passing clouds.10 mph94%29.62 "HgN/A
10:20 PM52 °FLight rain. Passing clouds.16 mph94%29.62 "HgN/A
9:50 PM52 °FLight rain. Partly cloudy.16 mph100%29.62 "HgN/A
9:20 PM54 °FThundershowers. Partly sunny.18 mph94%29.59 "Hg5 mi
8:50 PM55 °FThunderstorms. Broken clouds.17 mph94%29.59 "Hg3 mi
8:20 PM55 °FThunderstorms. Broken clouds.17 mph88%29.56 "HgN/A
7:50 PM57 °FThundershowers. Broken clouds.16 mph88%29.56 "HgN/A
7:20 PM61 °FScattered showers. Broken clouds.13 mph77%29.53 "HgN/A
6:50 PM63 °FScattered showers. Broken clouds.13 mph64%29.53 "HgN/A
6:20 PM64 °FPartly sunny.12 mph60%29.53 "HgN/A
5:50 PM64 °FScattered showers. Broken clouds.10 mph60%29.53 "HgN/A
5:20 PM64 °FBroken clouds.9 mph60%29.53 "HgN/A
4:50 PM66 °FPartly sunny.12 mph60%29.53 "HgN/A
4:20 PM64 °FPartly sunny.12 mph60%29.56 "HgN/A
Weather by CustomWeather, © 2015

See weather overviewHow to use our weather pages